Ostrava, Czech Republic

1:35 PM CEST on June 27, 2017 (GMT +0200)
Mosnov

Weather History for LKMT - August, 2013

Change the Weather History Date:

Monday, August 26, 2013

  Actual Average Record
Temperature  
Mean Temperature 61 °F -  
Max Temperature 68 °F 68 °F - ()
Min Temperature 54 °F 49 °F - ()
Degree Days  
Heating Degree Days 4    
Growing Degree Days 11 (Base 50)    
Moisture  
Dew Point 51 °F    
Average Humidity 73    
Maximum Humidity 94    
Minimum Humidity 43    
Precipitation  
Precipitation 0.01 in 0.08 in - ()
Sea Level Pressure  
Sea Level Pressure 29.97 in    
Wind  
Wind Speed 9 mph ()    
Max Wind Speed 18 mph    
Max Gust Speed -    
Visibility 6.7 miles    
Events Rain    
T = Trace of Precipitation, MM = Missing Value Source: Averaged Metar Reports

Daily Weather History Graph

Daily Weather History Graph

Search for Another Location

Airport or City:

Trip Planner

Search our weather history database for the weather conditions in past years. The results will help you decide how hot, cold, wet, or windy it might be!

Date:

Astronomy

Aug. 26, 2013 Rise Set
Actual Time 5:54 AM CEST 7:43 PM CEST
Civil Twilight 5:20 AM CEST 8:17 PM CEST
Nautical Twilight 4:37 AM CEST 8:59 PM CEST
Astronomical Twilight 3:51 AM CEST 9:45 PM CEST
Moon 10:02 PM CEST (8/26) 12:15 PM CEST (8/26)
Length of Visible Light 14h 57m
Length of Day
13h 49m
Waning Gibbous, 69% of the Moon is Illuminated
Aug 26
Waning Gibbous
Aug 28
Last Quarter
Sep 5
New
Sep 12
First Quarter
Sep 19
Full

Hourly Weather History & Observations

Time (CEST) Temp. Dew Point Humidity Pressure Visibility Wind Dir Wind Speed Gust Speed Precip Events Conditions
12:00 AM 59.0 °F 55.4 °F 88% 29.95 in 6.2 mi SSW 3.5 mph - N/A Rain Light Rain
12:30 AM 59.0 °F 53.6 °F 82% 29.95 in 6.2 mi Variable 2.3 mph - N/A Rain Light Rain
1:00 AM 57.2 °F 55.4 °F 94% 29.95 in 6.2 mi North 4.6 mph - N/A Rain Light Rain
1:30 AM 57.2 °F 55.4 °F 94% 29.95 in 6.2 mi NNE 3.5 mph - N/A Rain Light Rain
2:00 AM 57 °F 55 °F 91% 29.95 in 12 mi North 6.7 mph - - Rain Light Rain
2:00 AM 57.2 °F 55.4 °F 94% 29.95 in 6.2 mi North 5.8 mph - N/A Rain Light Rain
2:30 AM 57.2 °F 55.4 °F 94% 29.95 in 6.2 mi North 5.8 mph - N/A Rain Light Rain
3:00 AM 57.2 °F 55.4 °F 94% 29.95 in 6.2 mi North 5.8 mph - N/A Rain Light Rain
3:30 AM 57.2 °F 55.4 °F 94% 29.95 in 6.2 mi North 6.9 mph - N/A Rain Light Rain
4:00 AM 57.2 °F 55.4 °F 94% 29.95 in 6.2 mi NNE 6.9 mph - N/A Rain Light Rain
4:30 AM 55.4 °F 53.6 °F 94% 29.95 in 6.2 mi NNE 8.1 mph - N/A Rain Light Rain
5:00 AM 55.4 °F 53.6 °F 94% 29.95 in 5.0 mi NNE 8.1 mph - N/A Rain Light Rain
5:30 AM 55.4 °F 53.6 °F 94% 29.95 in 6.2 mi NNE 8.1 mph - N/A Rain Light Rain
6:00 AM 55.4 °F 53.6 °F 94% 29.95 in 5.6 mi NNE 9.2 mph - N/A Rain Light Rain
6:30 AM 55.4 °F 53.6 °F 94% 29.95 in 6.2 mi NNE 9.2 mph - N/A Rain Light Rain
7:00 AM 55.4 °F 53.6 °F 94% 29.95 in 6.2 mi NNE 9.2 mph - N/A   Partly Cloudy
7:30 AM 55.4 °F 53.6 °F 94% 29.95 in 6.2 mi North 5.8 mph - N/A   Partly Cloudy
8:00 AM 55 °F 52 °F 88% 29.98 in 9 mi NE 8.9 mph - -   Partly Cloudy
8:00 AM 55.4 °F 51.8 °F 88% 29.98 in 6.2 mi NNE 9.2 mph - N/A   Partly Cloudy
8:30 AM 55.4 °F 51.8 °F 88% 29.98 in 6.2 mi NNE 9.2 mph - N/A   Partly Cloudy
9:00 AM 57.2 °F 51.8 °F 82% 29.98 in 6.2 mi NNE 10.4 mph - N/A   Partly Cloudy
9:30 AM 59.0 °F 53.6 °F 82% 29.98 in 6.2 mi NE 9.2 mph - N/A   Partly Cloudy
10:00 AM 60.8 °F 51.8 °F 72% 29.98 in - NE 11.5 mph - N/A   Clear
10:30 AM 62.6 °F 53.6 °F 72% 29.98 in - NNE 12.7 mph - N/A   Clear
11:00 AM 62.6 °F 53.6 °F 72% 29.98 in - NE 11.5 mph - N/A   Clear
11:30 AM 62.6 °F 51.8 °F 68% 29.98 in - NE 15.0 mph - N/A   Clear
12:00 PM 64.4 °F 51.8 °F 64% 29.98 in 6.2 mi NE 17.3 mph - N/A   Partly Cloudy
12:30 PM 66.2 °F 51.8 °F 60% 29.98 in 6.2 mi NE 18.4 mph - N/A   Partly Cloudy
1:00 PM 68.0 °F 51.8 °F 56% 29.98 in 6.2 mi NE 16.1 mph - N/A   Partly Cloudy
1:30 PM 68.0 °F 50.0 °F 52% 29.98 in 6.2 mi ENE 17.3 mph - N/A   Scattered Clouds
2:00 PM 66 °F 50 °F 45% 29.96 in 12 mi NE 17.9 mph - -   Scattered Clouds
2:00 PM 66.2 °F 50.0 °F 56% 29.98 in 6.2 mi NE 18.4 mph - N/A   Partly Cloudy
2:30 PM 66.2 °F 50.0 °F 56% 29.98 in 6.2 mi ENE 18.4 mph - N/A   Partly Cloudy
3:00 PM 66.2 °F 50.0 °F 56% 29.98 in 6.2 mi ENE 15.0 mph - N/A   Partly Cloudy
3:30 PM 66.2 °F 50.0 °F 56% 29.95 in 6.2 mi ENE 18.4 mph - N/A   Partly Cloudy
4:00 PM 64.4 °F 48.2 °F 56% 29.98 in - ENE 16.1 mph - N/A   Clear
4:30 PM 64.4 °F 48.2 °F 56% 29.98 in 6.2 mi ENE 16.1 mph - N/A   Scattered Clouds
5:00 PM 66.2 °F 50.0 °F 56% 29.98 in 6.2 mi ENE 15.0 mph - N/A   Partly Cloudy
5:30 PM 64.4 °F 48.2 °F 56% 29.98 in 6.2 mi ENE 17.3 mph - N/A   Partly Cloudy
6:00 PM 64.4 °F 48.2 °F 56% 29.98 in - ENE 16.1 mph - N/A   Clear
6:30 PM 64.4 °F 48.2 °F 56% 29.98 in - ENE 16.1 mph - N/A   Clear
7:00 PM 62.6 °F 48.2 °F 59% 29.98 in 6.2 mi NE 16.1 mph - N/A   Partly Cloudy
7:30 PM 62.6 °F 46.4 °F 55% 29.98 in - NE 13.8 mph - N/A   Clear
8:00 PM 63 °F 46 °F 43% 29.99 in 12 mi NE 13.4 mph - -   Overcast
8:00 PM 62.6 °F 46.4 °F 55% 29.98 in 6.2 mi NE 12.7 mph - N/A   Partly Cloudy
8:30 PM 62.6 °F 46.4 °F 55% 29.98 in - NE 12.7 mph - N/A   Clear
9:00 PM 60.8 °F 46.4 °F 59% 29.98 in - NE 11.5 mph - N/A   Clear
9:30 PM 60.8 °F 48.2 °F 63% 30.01 in - NE 10.4 mph - N/A   Clear
10:00 PM 60.8 °F 48.2 °F 63% 30.01 in - NE 6.9 mph - N/A   Clear
10:30 PM 60.8 °F 48.2 °F 63% 30.01 in - NNE 8.1 mph - N/A   Clear
11:00 PM 60.8 °F 48.2 °F 63% 30.01 in - NNE 10.4 mph - N/A   Clear
11:30 PM 60.8 °F 50.0 °F 68% 30.01 in - NNE 10.4 mph - N/A   Clear